logo tempoitalia

Diretta Meteo Pampa, Stati Uniti (USA)lunedì 31 agosto ore 01:30

Mappa
Sereno 28 °C Sereno 24 Ore: T.min 22 T.max 39
Ponente Sud/Sud-Est Km/h 27.8 Punto di rugiada: 14 °C Umidità: 42% Visibilità: 10 Km
Il sole sorge alle: 07:15 Il sole tramonta alle: 20:12
31 Agosto 2026 01:30 tempo osservato: Sereno Sereno 28 42 1016 vento: Nord S/SE 27.8
31 Agosto 2026 01:10 tempo osservato: Sereno Sereno 28 42 1016 vento: Nord S 27.8
31 Agosto 2026 00:50 tempo osservato: Sereno Sereno 28 42 1016 vento: Nord S 27.8
31 Agosto 2026 00:30 tempo osservato: Sereno Sereno 28 42 1016 vento: Nord S 29.6
31 Agosto 2026 00:10 tempo osservato: Sereno Sereno 29 39 1016 vento: Nord S/SE 29.6
30 Agosto 2026 23:50 tempo osservato: Sereno Sereno 29 39 1016 vento: Nord S/SE 27.8
30 Agosto 2026 23:30 tempo osservato: Sereno Sereno 29 39 1015 vento: Nord S/SE 25.9
30 Agosto 2026 23:10 tempo osservato: Sereno Sereno 29 37 1015 vento: Nord S/SE 27.8
30 Agosto 2026 22:50 tempo osservato: Sereno Sereno 29 37 1015 vento: Nord S/SE 27.8
30 Agosto 2026 22:30 tempo osservato: Sereno Sereno 31 33 1015 vento: Nord S/SE 31.5
30 Agosto 2026 22:10 tempo osservato: Sereno Sereno 31 33 1015 vento: Nord S/SE 29.6
30 Agosto 2026 21:50 tempo osservato: Sereno Sereno 31 33 1015 vento: Nord S/SE 31.5
30 Agosto 2026 21:30 tempo osservato: Sereno Sereno 31 33 1015 vento: Nord S/SE 27.8
30 Agosto 2026 21:10 tempo osservato: Sereno Sereno 32 31 1014 vento: Nord S/SE 25.9
30 Agosto 2026 20:50 tempo osservato: Sereno Sereno 32 31 1014 vento: Nord S/SE 24
30 Agosto 2026 20:30 tempo osservato: Sereno Sereno 33 29 1014 vento: Nord S/SE 24
30 Agosto 2026 20:10 tempo osservato: Sereno Sereno 34 28 1014 vento: Nord S/SE 25.9
30 Agosto 2026 19:50 tempo osservato: Sereno Sereno 34 28 1014 vento: Nord S/SE 25.9
30 Agosto 2026 19:30 tempo osservato: Sereno Sereno 35 26 1014 vento: Nord S/SE 25.9
30 Agosto 2026 19:10 tempo osservato: Sereno Sereno 36 25 1014 vento: Nord S/SE 27.8
30 Agosto 2026 18:50 tempo osservato: Sereno Sereno 36 25 1014 vento: Nord S 24
30 Agosto 2026 18:30 tempo osservato: Sereno Sereno 37 22 1014 vento: Nord S 25.9
30 Agosto 2026 18:10 tempo osservato: Sereno Sereno 37 22 1014 vento: Nord S 29.6
30 Agosto 2026 17:50 tempo osservato: Sereno Sereno 39 20 1014 vento: Nord S 33.3
30 Agosto 2026 17:30 tempo osservato: Sereno Sereno 39 20 1014 vento: Nord S 25.9
30 Agosto 2026 17:10 tempo osservato: Sereno Sereno 39 20 1014 vento: Nord S 25.9
30 Agosto 2026 16:50 tempo osservato: Sereno Sereno 39 20 1014 vento: Nord S 27.8
30 Agosto 2026 16:30 tempo osservato: Sereno Sereno 39 20 1014 vento: Nord S 24
30 Agosto 2026 16:10 tempo osservato: Sereno Sereno 39 21 1014 vento: Nord S/SO 25.9
30 Agosto 2026 15:50 tempo osservato: Sereno Sereno 39 21 1015 vento: Nord S 29.6
30 Agosto 2026 15:30 tempo osservato: Sereno Sereno 39 21 1015 vento: Nord S/SO 24
30 Agosto 2026 15:10 tempo osservato: Sereno Sereno 39 21 1015 vento: Nord S/SO 25.9
30 Agosto 2026 14:50 tempo osservato: Sereno Sereno 39 21 1015 vento: Nord S 27.8
30 Agosto 2026 14:30 tempo osservato: Sereno Sereno 39 22 1015 vento: Nord S 37
30 Agosto 2026 14:10 tempo osservato: Sereno Sereno 38 22 1016 vento: Nord S/SO 24
30 Agosto 2026 13:50 tempo osservato: Sereno Sereno 38 22 1016 vento: Nord S 31.5
30 Agosto 2026 13:30 tempo osservato: Sereno Sereno 38 24 1016 vento: Nord S 35.2
30 Agosto 2026 13:10 tempo osservato: Sereno Sereno 38 24 1016 vento: Nord S 31.5
30 Agosto 2026 12:50 tempo osservato: Sereno Sereno 38 24 1016 vento: Nord S/SO 33.3
30 Agosto 2026 12:30 tempo osservato: Sereno Sereno 38 24 1017 vento: Nord S 37
30 Agosto 2026 12:10 tempo osservato: Sereno Sereno 36 28 1017 vento: Nord SO 31.5
30 Agosto 2026 11:50 tempo osservato: Sereno Sereno 36 30 1017 vento: Nord SO 31.5
30 Agosto 2026 11:30 tempo osservato: Sereno Sereno 35 32 1017 vento: Nord S/SO 31.5
30 Agosto 2026 11:10 tempo osservato: Sereno Sereno 34 34 1017 vento: Nord S/SO 29.6
30 Agosto 2026 10:50 tempo osservato: Sereno Sereno 33 36 1017 vento: Nord S/SO 29.6
30 Agosto 2026 10:30 tempo osservato: Sereno Sereno 32 38 1017 vento: Nord S/SO 37
30 Agosto 2026 10:10 tempo osservato: Sereno Sereno 32 38 1017 vento: Nord S/SO 31.5
30 Agosto 2026 09:50 tempo osservato: Sereno Sereno 31 40 1017 vento: Nord SO 31.5
30 Agosto 2026 09:30 tempo osservato: Sereno Sereno 30 42 1017 vento: Nord SO 33.3
30 Agosto 2026 09:10 tempo osservato: Sereno Sereno 29 45 1017 vento: Nord S/SO 25.9
30 Agosto 2026 08:50 tempo osservato: Sereno Sereno 28 48 1017 vento: Nord S/SO 22.2
30 Agosto 2026 08:30 tempo osservato: Sereno Sereno 27 47 1017 vento: Nord S/SO 22.2
30 Agosto 2026 08:10 tempo osservato: Sereno Sereno 25 53 1017 vento: Nord S/SO 22.2
30 Agosto 2026 07:50 tempo osservato: Sereno Sereno 24 57 1017 vento: Nord S/SO 16.7
30 Agosto 2026 07:30 tempo osservato: Sereno Sereno 24 57 1017 vento: Nord S/SO 18.5
30 Agosto 2026 07:10 tempo osservato: Sereno Sereno 22 64 1017 vento: Nord S 13
30 Agosto 2026 06:50 tempo osservato: Sereno Sereno 22 64 1016 vento: Nord S 13
30 Agosto 2026 06:30 tempo osservato: Sereno Sereno 22 60 1016 vento: Nord S 14.8
30 Agosto 2026 06:10 tempo osservato: Sereno Sereno 22 60 1016 vento: Nord S 14.8
30 Agosto 2026 05:50 tempo osservato: Sereno Sereno 23 56 1016 vento: Nord S 14.8
30 Agosto 2026 05:30 tempo osservato: Sereno Sereno 23 56 1016 vento: Nord S 14.8
30 Agosto 2026 05:10 tempo osservato: Sereno Sereno 23 56 1016 vento: Nord S 14.8
30 Agosto 2026 04:50 tempo osservato: Sereno Sereno 24 50 1016 vento: Nord S 14.8
30 Agosto 2026 04:30 tempo osservato: Sereno Sereno 24 50 1016 vento: Nord S 16.7
30 Agosto 2026 04:10 tempo osservato: Sereno Sereno 24 50 1016 vento: Nord S 14.8
30 Agosto 2026 03:50 tempo osservato: Sereno Sereno 24 50 1016 vento: Nord S 14.8
30 Agosto 2026 03:30 tempo osservato: Sereno Sereno 25 47 1016 vento: Nord S 16.7
30 Agosto 2026 03:10 tempo osservato: Sereno Sereno 25 47 1016 vento: Nord S 18.5
30 Agosto 2026 02:50 tempo osservato: Sereno Sereno 25 47 1016 vento: Nord S 18.5
30 Agosto 2026 02:30 tempo osservato: Sereno Sereno 26 44 1017 vento: Nord S 20.3
30 Agosto 2026 02:10 tempo osservato: Sereno Sereno 26 44 1017 vento: Nord S 18.5
30 Agosto 2026 01:50 tempo osservato: Sereno Sereno 28 37 1017 vento: Nord S 24